Tracking 35237 objects as of 4-Sep-2026
HD Live streaming from Space Station
objects crossing your sky now

SL-6 R/B(1)


SL-6 R/B(1) is no longer on orbit


NORAD ID: 15662
Int'l Code: 1985-033B
Launch date: April 26, 1985
Source: Commonwealth of Independent States (former USSR) (CIS)
Launch site: TYURATAM MISSILE AND SPACE COMPLEX (TTMTR)
Decay date: 1985-06-20

Note: This is a ROCKET BODY
Your satellite tracking list
Your tracking list is empty




NASA's NSSDC Master Catalog

Two Line Element Set (TLE):
1 15662U 85033  B 85170.73215324  .09167477 +32115-4 +51621-3 0  9992
2 15662 064.9660 140.6594 0007434 003.8887 356.2384 16.41827054008696
Source of the keplerian elements: AFSPC